TimeAKST,TemperatureF,Dew PointF,Humidity,Sea Level PressureIn,VisibilityMPH,Wind Direction,Wind SpeedMPH,Gust SpeedMPH,PrecipitationIn,Events,Conditions,WindDirDegrees,DateUTC
12:54 AM,18.0,1.9,50,29.39,10.0,NW,10.4,-,N/A,,Partly Cloudy,310,2012-11-18 09:54:00
1:54 AM,16.0,5.0,62,29.40,10.0,WNW,10.4,-,N/A,,Scattered Clouds,300,2012-11-18 10:54:00
2:54 AM,18.0,3.0,52,29.41,10.0,WNW,9.2,-,N/A,,Partly Cloudy,300,2012-11-18 11:54:00
3:54 AM,15.1,9.0,77,29.43,10.0,West,10.4,-,N/A,,Clear,280,2012-11-18 12:54:00
4:54 AM,14.0,9.0,80,29.44,10.0,WNW,10.4,-,N/A,,Mostly Cloudy,290,2012-11-18 13:54:00
5:54 AM,14.0,10.0,84,29.46,10.0,West,9.2,-,N/A,,Overcast,280,2012-11-18 14:54:00
6:54 AM,14.0,10.0,84,29.47,10.0,West,9.2,-,N/A,,Overcast,280,2012-11-18 15:54:00
7:54 AM,15.1,9.0,77,29.49,10.0,WNW,9.2,-,N/A,,Overcast,300,2012-11-18 16:54:00
8:54 AM,17.1,7.0,65,29.51,10.0,NW,10.4,-,N/A,,Overcast,310,2012-11-18 17:54:00
9:54 AM,18.0,6.1,60,29.53,10.0,NW,9.2,-,N/A,,Overcast,310,2012-11-18 18:54:00
10:54 AM,18.0,7.0,62,29.54,10.0,NW,11.5,-,N/A,,Overcast,310,2012-11-18 19:54:00
11:54 AM,19.9,7.0,57,29.55,10.0,WNW,5.8,-,N/A,,Overcast,300,2012-11-18 20:54:00
12:54 PM,19.9,6.1,55,29.56,10.0,NW,8.1,-,N/A,,Overcast,310,2012-11-18 21:54:00
1:54 PM,19.9,9.0,62,29.56,4.0,WNW,12.7,24.2,0.00,Snow,Light Snow,290,2012-11-18 22:54:00
2:54 PM,19.0,9.0,65,29.56,10.0,WNW,12.7,-,0.00,,Overcast,300,2012-11-18 23:54:00
3:54 PM,19.0,9.0,65,29.57,10.0,WNW,10.4,16.1,0.00,Snow,Light Snow,300,2012-11-19 00:54:00
4:54 PM,19.0,10.0,68,29.56,8.0,WNW,11.5,-,0.00,Snow,Light Snow,290,2012-11-19 01:54:00
5:54 PM,19.0,9.0,65,29.56,10.0,WNW,10.4,-,0.00,,Overcast,300,2012-11-19 02:54:00
6:54 PM,19.0,7.0,59,29.57,10.0,WNW,12.7,21.9,N/A,,Overcast,300,2012-11-19 03:54:00
7:54 PM,19.0,7.0,59,29.56,10.0,NW,12.7,-,N/A,,Overcast,310,2012-11-19 04:54:00
8:54 PM,18.0,7.0,62,29.56,10.0,WNW,13.8,20.7,N/A,,Overcast,300,2012-11-19 05:54:00
9:54 PM,19.0,6.1,57,29.55,10.0,WNW,17.3,24.2,N/A,,Overcast,290,2012-11-19 06:54:00
10:54 PM,18.0,7.0,62,29.55,10.0,WNW,12.7,23.0,N/A,,Mostly Cloudy,300,2012-11-19 07:54:00
11:54 PM,18.0,8.1,65,29.55,10.0,NW,12.7,-,N/A,,Overcast,310,2012-11-19 08:54:00